TET-1 (38710 NORAD) Tracking and Keplerian Element Data

This shows tracking and keplerian element data for the satellite.

Feedback or suggestion? Click here.




ElementValue
Catalog38710
NameTET-1
Epoch Orbit33540
Epoch Day198.88704717
Epoch Year2018
RAAN177.6908
Inclination97.5927
Eccentricity0.0001534
Argument of Perigee143.2906
Mean Anonmoly216.8449
Mean Motion15.47824766
Decay Rate1.977E-05
L11 38710U 12039D 18198.88704717 .00001977 00000-0 39954-4 0 9991
L22 38710 97.5927 177.6908 0001534 143.2906 216.8449 15.47824766335405

Live tracking and technical data element details for TET-1 (NORAD 38710). TET-1 can be tracked NOW for your location showing map with azimuth and elevation plus other details from your city location.

Track the satellite on the map from your city or location and see movement details for azimuth, elevation, latitude, longitude, range, height, and movement on the map or in text.







IsCatalogInMostPopularTable: catalog: 38710, numindb: 45
Update: records affected: 1



GetName: 38710 TET-1

Hit Count: updated at: Thu, 19 Jul 2018 04:01:08 GMT